Volver al catálogo

SL-8 R/B

ActivoLEO
NORAD 12115·ROCKET BODY·🇷🇺 Russia

Lanzado Dec 23, 1980 desde Plesetsk Cosmodrome

Loading…

Próximos Pases (próximas 24 horas)

TLE

ActualizadoSource: Space-Track

Época: Sep 14, 2026, 09:48 UTC

1 12115U 80102J   26257.40863112 -.00000100  00000-0 -53243-3 0  9991
2 12115  73.9881  56.9070 0019713 174.4711 210.9940 12.52313719 90447

Sigue SL-8 R/B en tiempo real con AllMySat

Download on the App Store